Time,TemperatureF,DewpointF,PressureIn,WindDirection,WindDirectionDegrees,WindSpeedMPH,WindSpeedGustMPH,Humidity,HourlyPrecipIn,Conditions,Clouds,dailyrainin,SoftwareType,DateUTC
2013-07-09 00:01:00,65.0,65.0,30.09,WNW,285,0.0,1.0,99,0.00,,,0.96,,2013-07-09 04:01:00,
2013-07-09 00:02:00,65.0,65.0,30.09,WNW,285,0.0,0.0,99,0.00,,,0.96,,2013-07-09 04:02:00,
2013-07-09 00:34:00,64.0,64.0,30.09,WNW,285,0.0,0.0,99,0.00,,,0.96,,2013-07-09 04:34:00,
2013-07-09 00:43:00,64.0,64.0,30.09,WNW,285,0.0,0.0,99,0.00,,,0.96,,2013-07-09 04:43:00,
2013-07-09 00:53:00,64.0,64.0,30.09,WNW,285,0.0,0.0,99,0.00,,,0.96,,2013-07-09 04:53:00,
2013-07-09 01:02:00,64.0,64.0,30.09,WNW,285,0.0,1.0,99,0.00,,,0.96,,2013-07-09 05:02:00,
2013-07-09 01:22:00,64.0,64.0,30.09,WNW,285,0.0,0.0,99,0.00,,,0.96,,2013-07-09 05:22:00,
2013-07-09 01:33:00,64.0,64.0,30.09,WNW,285,0.0,0.0,99,0.00,,,0.96,,2013-07-09 05:33:00,
2013-07-09 01:42:00,64.0,64.0,30.08,WNW,285,0.0,0.0,99,0.00,,,0.96,,2013-07-09 05:42:00,
2013-07-09 01:52:00,64.0,64.0,30.08,WNW,285,0.0,0.0,99,0.00,,,0.96,,2013-07-09 05:52:00,
2013-07-09 02:01:00,64.0,64.0,30.08,WNW,285,0.0,1.0,99,0.00,,,0.96,,2013-07-09 06:01:00,
2013-07-09 02:11:00,64.0,64.0,30.08,WNW,285,0.0,0.0,99,0.00,,,0.96,,2013-07-09 06:11:00,
2013-07-09 02:22:00,64.0,64.0,30.08,WNW,285,0.0,0.0,99,0.00,,,0.96,,2013-07-09 06:22:00,
2013-07-09 02:34:00,64.0,64.0,30.08,WNW,285,0.0,1.0,99,0.00,,,0.96,,2013-07-09 06:34:00,
2013-07-09 02:43:00,64.0,64.0,30.08,WNW,285,0.0,0.0,99,0.00,,,0.96,,2013-07-09 06:43:00,
2013-07-09 02:53:00,64.0,64.0,30.08,WNW,285,0.0,0.0,99,0.00,,,0.96,,2013-07-09 06:53:00,
2013-07-09 03:02:00,64.0,64.0,30.07,WNW,285,0.0,1.0,99,0.00,,,0.96,,2013-07-09 07:02:00,
2013-07-09 03:12:00,64.0,64.0,30.08,WNW,285,0.0,0.0,99,0.00,,,0.96,,2013-07-09 07:12:00,
2013-07-09 03:22:00,64.0,64.0,30.08,WNW,285,0.0,1.0,99,0.00,,,0.96,,2013-07-09 07:22:00,
2013-07-09 03:34:00,64.0,64.0,30.08,WNW,285,0.0,0.0,99,0.00,,,0.96,,2013-07-09 07:34:00,
2013-07-09 03:43:00,64.0,64.0,30.08,WNW,285,0.0,0.0,99,0.00,,,0.96,,2013-07-09 07:43:00,
2013-07-09 03:53:00,64.0,64.0,30.08,WNW,285,0.0,0.0,99,0.00,,,0.96,,2013-07-09 07:53:00,
2013-07-09 04:01:00,64.0,64.0,30.08,WNW,285,0.0,0.0,99,0.00,,,0.96,,2013-07-09 08:01:00,
2013-07-09 04:11:00,64.0,64.0,30.08,WNW,285,0.0,0.0,99,0.00,,,0.96,,2013-07-09 08:11:00,
2013-07-09 04:22:00,64.0,64.0,30.08,WNW,285,0.0,0.0,99,0.00,,,0.96,,2013-07-09 08:22:00,
2013-07-09 04:43:00,64.0,64.0,30.09,WNW,285,0.0,0.0,99,0.00,,,0.96,,2013-07-09 08:43:00,
2013-07-09 04:52:00,64.0,64.0,30.09,WNW,285,0.0,0.0,99,0.00,,,0.96,,2013-07-09 08:52:00,
2013-07-09 05:02:00,63.0,63.0,30.09,WNW,285,0.0,0.0,99,0.00,,,0.96,,2013-07-09 09:02:00,
2013-07-09 05:12:00,63.0,63.0,30.09,WNW,285,0.0,0.0,99,0.00,,,0.96,,2013-07-09 09:12:00,
2013-07-09 05:34:00,64.0,64.0,30.09,WNW,285,0.0,0.0,100,0.00,,,0.96,,2013-07-09 09:34:00,
2013-07-09 05:42:00,64.0,64.0,30.10,WNW,285,0.0,0.0,100,0.00,,,0.96,,2013-07-09 09:42:00,
2013-07-09 05:53:00,64.0,64.0,30.10,WNW,285,0.0,0.0,99,0.00,,,0.96,,2013-07-09 09:53:00,
2013-07-09 06:01:00,64.0,64.0,30.10,WNW,285,0.0,0.0,99,0.00,,,0.96,,2013-07-09 10:01:00,
2013-07-09 06:11:00,63.0,63.0,30.10,WNW,285,0.0,0.0,99,0.00,,,0.96,,2013-07-09 10:11:00,
2013-07-09 06:33:00,63.0,63.0,30.11,WNW,285,0.0,0.0,99,0.00,,,0.96,,2013-07-09 10:33:00,
2013-07-09 06:42:00,64.0,64.0,30.11,WNW,285,0.0,1.0,100,0.00,,,0.96,,2013-07-09 10:42:00,
2013-07-09 06:52:00,64.0,64.0,30.11,WNW,285,0.0,1.0,100,0.00,,,0.96,,2013-07-09 10:52:00,
2013-07-09 07:02:00,64.0,64.0,30.11,WNW,285,0.0,0.0,100,0.00,,,0.96,,2013-07-09 11:02:00,
2013-07-09 07:11:00,64.0,64.0,30.11,WNW,285,0.0,1.0,100,0.00,,,0.96,,2013-07-09 11:11:00,
2013-07-09 07:22:00,64.0,64.0,30.12,WNW,285,0.0,0.0,99,0.00,,,0.96,,2013-07-09 11:22:00,
2013-07-09 07:34:00,64.0,64.0,30.12,West,281,0.0,2.0,99,0.00,,,0.96,,2013-07-09 11:34:00,
2013-07-09 07:42:00,64.0,64.0,30.12,West,281,0.0,0.0,99,0.00,,,0.96,,2013-07-09 11:42:00,
2013-07-09 07:53:00,64.0,64.0,30.13,West,281,0.0,0.0,99,0.00,,,0.96,,2013-07-09 11:53:00,
2013-07-09 08:02:00,64.0,64.0,30.13,West,281,0.0,1.0,99,0.00,,,0.96,,2013-07-09 12:02:00,
2013-07-09 08:12:00,64.0,64.0,30.13,West,281,0.0,0.0,100,0.00,,,0.96,,2013-07-09 12:12:00,
2013-07-09 08:22:00,64.0,64.0,30.13,West,280,0.0,1.0,99,0.00,,,0.96,,2013-07-09 12:22:00,
2013-07-09 08:33:00,65.0,65.0,30.13,West,280,0.0,0.0,99,0.00,,,0.96,,2013-07-09 12:33:00,
2013-07-09 08:43:00,65.0,65.0,30.13,West,281,0.0,2.0,99,0.00,,,0.96,,2013-07-09 12:43:00,
2013-07-09 08:52:00,65.0,65.0,30.13,West,262,0.0,2.0,99,0.00,,,0.96,,2013-07-09 12:52:00,
2013-07-09 09:22:00,65.0,65.0,30.13,West,271,0.0,1.0,99,0.00,,,0.96,,2013-07-09 13:22:00,
2013-07-09 09:33:00,66.0,65.0,30.13,West,271,0.0,1.0,98,0.00,,,0.96,,2013-07-09 13:33:00,
2013-07-09 09:43:00,66.0,65.0,30.13,West,273,0.0,1.0,97,0.00,,,0.96,,2013-07-09 13:43:00,
2013-07-09 09:53:00,66.0,65.0,30.13,West,271,0.0,1.0,97,0.00,,,0.96,,2013-07-09 13:53:00,
2013-07-09 10:22:00,67.0,66.0,30.13,West,271,0.0,0.0,96,0.00,,,0.96,,2013-07-09 14:22:00,
2013-07-09 10:34:00,68.0,67.0,30.13,West,271,0.0,1.0,96,0.00,,,0.96,,2013-07-09 14:34:00,
2013-07-09 10:43:00,68.0,67.0,30.13,West,271,0.0,0.0,95,0.00,,,0.96,,2013-07-09 14:43:00,
2013-07-09 10:53:00,68.0,67.0,30.13,West,270,0.0,1.0,95,0.00,,,0.96,,2013-07-09 14:53:00,
2013-07-09 11:22:00,68.0,67.0,30.13,West,268,0.0,1.0,95,0.00,,,0.96,,2013-07-09 15:22:00,
2013-07-09 11:33:00,68.0,67.0,30.13,West,266,0.0,1.0,96,0.00,,,0.96,,2013-07-09 15:33:00,
2013-07-09 11:52:00,69.0,68.0,30.13,West,264,0.0,1.0,96,0.00,,,0.96,,2013-07-09 15:52:00,
2013-07-09 12:02:00,70.0,68.0,30.13,West,260,0.0,2.0,95,0.00,,,0.96,,2013-07-09 16:02:00,
2013-07-09 12:11:00,70.0,68.0,30.13,WSW,257,1.0,2.0,92,0.00,,,0.96,,2013-07-09 16:11:00,
2013-07-09 12:43:00,71.0,68.0,30.12,WSW,256,0.0,1.0,91,0.00,,,0.96,,2013-07-09 16:43:00,
2013-07-09 12:52:00,71.0,68.0,30.13,WSW,256,0.0,1.0,91,0.00,,,0.96,,2013-07-09 16:52:00,
2013-07-09 13:22:00,73.0,70.0,30.12,WSW,255,0.0,1.0,90,0.00,,,0.62,,2013-07-09 17:22:00,
2013-07-09 13:35:00,72.0,69.0,30.12,WSW,255,0.0,1.0,89,0.00,,,0.62,,2013-07-09 17:35:00,
2013-07-09 13:53:00,72.0,68.0,30.12,WSW,252,0.0,1.0,88,0.00,,,0.62,,2013-07-09 17:53:00,
2013-07-09 14:11:00,72.0,68.0,30.11,WSW,253,0.0,1.0,88,0.00,,,0.62,,2013-07-09 18:11:00,
2013-07-09 14:22:00,72.0,69.0,30.11,WSW,251,0.0,2.0,90,0.00,,,0.62,,2013-07-09 18:22:00,
2013-07-09 14:32:00,72.0,69.0,30.11,WSW,250,0.0,1.0,89,0.00,,,0.62,,2013-07-09 18:32:00,
2013-07-09 14:43:00,72.0,69.0,30.11,WSW,250,0.0,1.0,90,0.00,,,0.62,,2013-07-09 18:43:00,
2013-07-09 14:52:00,72.0,69.0,30.11,WSW,249,0.0,2.0,90,0.00,,,0.62,,2013-07-09 18:52:00,
2013-07-09 15:01:00,72.0,68.0,30.11,WSW,249,0.0,0.0,88,0.00,,,0.62,,2013-07-09 19:01:00,
2013-07-09 15:11:00,72.0,69.0,30.10,WSW,249,0.0,1.0,89,0.00,,,0.62,,2013-07-09 19:11:00,
2013-07-09 15:42:00,72.0,69.0,30.10,WSW,245,0.0,1.0,90,0.00,,,0.62,,2013-07-09 19:42:00,
2013-07-09 15:52:00,72.0,69.0,30.10,WSW,246,0.0,1.0,90,0.00,,,0.62,,2013-07-09 19:52:00,
2013-07-09 16:02:00,72.0,69.0,30.10,WSW,243,0.0,1.0,89,0.00,,,0.62,,2013-07-09 20:02:00,
2013-07-09 16:11:00,72.0,69.0,30.11,WSW,245,0.0,1.0,90,0.00,,,0.62,,2013-07-09 20:11:00,
2013-07-09 16:22:00,71.0,68.0,30.11,WSW,242,0.0,1.0,89,0.00,,,0.62,,2013-07-09 20:22:00,
2013-07-09 16:32:00,71.0,68.0,30.11,WSW,242,0.0,1.0,90,0.00,,,0.62,,2013-07-09 20:32:00,
2013-07-09 16:43:00,72.0,69.0,30.11,WSW,242,0.0,0.0,91,0.00,,,0.62,,2013-07-09 20:43:00,
2013-07-09 16:52:00,72.0,69.0,30.11,WSW,243,1.0,2.0,89,0.00,,,0.62,,2013-07-09 20:52:00,
2013-07-09 17:01:00,72.0,69.0,30.11,WSW,242,0.0,1.0,89,0.00,,,0.62,,2013-07-09 21:01:00,
2013-07-09 17:11:00,72.0,69.0,30.10,WSW,242,0.0,1.0,89,0.00,,,0.62,,2013-07-09 21:11:00,
2013-07-09 17:22:00,72.0,69.0,30.10,WSW,242,0.0,1.0,89,0.00,,,0.62,,2013-07-09 21:22:00,
2013-07-09 17:32:00,72.0,69.0,30.10,WSW,240,0.0,1.0,89,0.00,,,0.62,,2013-07-09 21:32:00,
2013-07-09 17:42:00,71.0,68.0,30.10,WSW,239,0.0,2.0,89,0.00,,,0.62,,2013-07-09 21:42:00,
2013-07-09 17:52:00,71.0,68.0,30.09,WSW,239,0.0,0.0,90,0.00,,,0.62,,2013-07-09 21:52:00,
2013-07-09 18:01:00,71.0,68.0,30.09,WSW,239,0.0,1.0,90,0.00,,,0.62,,2013-07-09 22:01:00,
2013-07-09 18:11:00,71.0,68.0,30.09,WSW,239,0.0,0.0,91,0.00,,,0.62,,2013-07-09 22:11:00,
2013-07-09 18:22:00,71.0,68.0,30.09,WSW,239,0.0,0.0,91,0.00,,,0.62,,2013-07-09 22:22:00,
2013-07-09 18:33:00,71.0,69.0,30.10,WSW,239,0.0,0.0,92,0.00,,,0.04,,2013-07-09 22:33:00,
2013-07-09 18:42:00,70.0,67.0,30.09,WSW,239,0.0,1.0,91,0.00,,,0.04,,2013-07-09 22:42:00,
2013-07-09 18:53:00,70.0,67.0,30.09,WSW,239,0.0,1.0,91,0.00,,,0.04,,2013-07-09 22:53:00,
2013-07-09 19:02:00,70.0,67.0,30.09,WSW,237,0.0,2.0,91,0.00,,,0.04,,2013-07-09 23:02:00,
2013-07-09 19:12:00,70.0,68.0,30.09,WSW,239,0.0,1.0,92,0.00,,,0.04,,2013-07-09 23:12:00,
2013-07-09 19:22:00,70.0,68.0,30.08,WSW,238,0.0,1.0,92,0.00,,,0.00,,2013-07-09 23:22:00,
2013-07-09 19:33:00,70.0,68.0,30.08,WSW,237,0.0,0.0,92,0.00,,,0.00,,2013-07-09 23:33:00,
2013-07-09 19:43:00,70.0,68.0,30.08,WSW,238,0.0,0.0,92,0.00,,,0.00,,2013-07-09 23:43:00,
2013-07-09 19:53:00,70.0,68.0,30.08,WSW,238,0.0,0.0,92,0.00,,,0.00,,2013-07-09 23:53:00,
2013-07-09 20:01:00,69.0,67.0,30.09,WSW,237,0.0,0.0,93,0.00,,,0.00,,2013-07-10 00:01:00,
2013-07-09 20:11:00,69.0,67.0,30.09,WSW,238,0.0,1.0,93,0.00,,,0.00,,2013-07-10 00:11:00,
2013-07-09 20:22:00,69.0,67.0,30.09,WSW,238,0.0,0.0,93,0.00,,,0.00,,2013-07-10 00:22:00,
2013-07-09 20:42:00,69.0,67.0,30.09,WSW,238,0.0,0.0,94,0.00,,,0.00,,2013-07-10 00:42:00,
2013-07-09 20:52:00,69.0,67.0,30.09,WSW,237,0.0,0.0,94,0.00,,,0.00,,2013-07-10 00:52:00,
2013-07-09 21:01:00,68.0,67.0,30.09,WSW,238,0.0,1.0,95,0.00,,,0.00,,2013-07-10 01:01:00,
2013-07-09 21:11:00,68.0,67.0,30.09,WSW,238,0.0,1.0,95,0.00,,,0.00,,2013-07-10 01:11:00,
2013-07-09 21:22:00,68.0,67.0,30.09,WSW,238,0.0,0.0,95,0.00,,,0.00,,2013-07-10 01:22:00,
2013-07-09 21:33:00,68.0,67.0,30.10,SW,236,0.0,0.0,95,0.00,,,0.00,,2013-07-10 01:33:00,
2013-07-09 21:43:00,68.0,67.0,30.09,SW,236,0.0,0.0,95,0.00,,,0.00,,2013-07-10 01:43:00,
2013-07-09 21:53:00,68.0,67.0,30.09,SW,236,0.0,0.0,95,0.00,,,0.00,,2013-07-10 01:53:00,
2013-07-09 22:02:00,68.0,67.0,30.09,SW,236,0.0,0.0,95,0.00,,,0.00,,2013-07-10 02:02:00,
2013-07-09 22:23:00,68.0,67.0,30.10,SW,236,0.0,1.0,95,0.00,,,0.00,,2013-07-10 02:23:00,
2013-07-09 22:34:00,68.0,67.0,30.10,SW,236,0.0,0.0,95,0.00,,,0.00,,2013-07-10 02:34:00,
2013-07-09 22:43:00,68.0,67.0,30.10,SW,236,0.0,0.0,95,0.00,,,0.00,,2013-07-10 02:43:00,
2013-07-09 22:53:00,68.0,67.0,30.10,SW,236,0.0,0.0,95,0.00,,,0.00,,2013-07-10 02:53:00,
2013-07-09 23:01:00,68.0,67.0,30.10,SW,236,0.0,0.0,95,0.00,,,0.00,,2013-07-10 03:01:00,
2013-07-09 23:12:00,68.0,67.0,30.10,SW,236,0.0,0.0,95,0.00,,,0.00,,2013-07-10 03:12:00,
2013-07-09 23:22:00,68.0,67.0,30.10,SW,236,0.0,0.0,96,0.00,,,0.00,,2013-07-10 03:22:00,
2013-07-09 23:43:00,67.0,66.0,30.11,SW,236,0.0,1.0,95,0.00,,,0.00,,2013-07-10 03:43:00,
2013-07-09 23:52:00,67.0,66.0,30.11,SW,236,0.0,0.0,95,0.00,,,0.00,,2013-07-10 03:52:00,